{"data":{"norad_id":64737,"intl_designator":"2025-144P","name":"STARLINK-34619","alt_names":[],"object_type":"PAYLOAD","status":"ACTIVE","operator":null,"country":"US","launch_date":"2025-07-02","launch_site_code":"AFETR","launch_vehicle":null,"mission":null,"orbit_class":"UNKNOWN","rcs_meters":null,"size_class":null,"mass_kg":null,"dimensions":null,"purposes":["comms"],"wikipedia_slug":null,"has_3d_model":false,"image_url":null,"decayed_at":null,"tle_current":{"epoch":"2026-05-25T03:32:56.018976Z","epoch_age_seconds":62019,"freshness":"FRESH","line1":"1 64737U 25144P   26145.14787059  .00010479  00000+0  36537-3 0  9999","line2":"2 64737  53.1571 186.2063 0001150  99.4761 260.6370 15.30204835 51416","mean_motion":15.30204835,"eccentricity":0.000115,"inclination_deg":53.1571,"raan_deg":186.2063,"arg_perigee_deg":99.4761,"mean_anomaly_deg":260.637,"bstar":0.00036537,"rev_number":5141,"period_min":94.105048361058,"perigee_km":474.41249919105,"apogee_km":475.98876684665,"semimajor_km":6853.3376330189,"source":"CELESTRAK","updated_at":"2026-05-25T13:38:20.546866Z"}}}